Stanley, ID

4:32 AM MDT on June 29, 2017 (GMT -0600)
Stanley

Weather History for KSNT - March, 2012

Change the Weather History Date:

Monday, March 5, 2012

  Actual Average Record
Temperature  
Mean Temperature 26 °F 24 °F  
Max Temperature 45 °F 39 °F 55 °F (1987)
Min Temperature 6 °F 9 °F -28 °F (1923)
Degree Days  
Heating Degree Days 39 41  
Month to date heating degree days 219 208  
Since 1 July heating degree days 7767 7742  
Cooling Degree Days 0 0  
Month to date cooling degree days 0 0  
Year to date cooling degree days 0 0  
Moisture  
Dew Point 15 °F    
Average Humidity 60    
Maximum Humidity 91    
Minimum Humidity 29    
Precipitation  
Precipitation 0.01 in 0.04 in 0.79 in (1919)
Month to date precipitation 0.10 0.20  
Year to date precipitation 4.19 3.51  
Sea Level Pressure  
Sea Level Pressure 29.90 in    
Wind  
Wind Speed 5 mph (South)    
Max Wind Speed 17 mph    
Max Gust Speed 26 mph    
T = Trace of Precipitation, MM = Missing Value Source: NWS Daily Summary

Daily Weather History Graph

Daily Weather History Graph

Search for Another Location

Airport or City:

Trip Planner

Search our weather history database for the weather conditions in past years. The results will help you decide how hot, cold, wet, or windy it might be!

Date:

Astronomy

Mar. 05, 2012 Rise Set
Actual Time 7:08 AM MST 6:33 PM MST
Civil Twilight 6:39 AM MST 7:02 PM MST
Nautical Twilight 6:06 AM MST 7:36 PM MST
Astronomical Twilight 5:32 AM MST 8:10 PM MST
Moon 3:52 PM MST (3/5) 5:16 AM MST (3/5)
Length of Visible Light 12h 22m
Length of Day
11h 25m
Waxing Gibbous, 91% of the Moon is Illuminated
Mar 5
Waxing Gibbous
Mar 8
Full
Mar 14
Last Quarter
Mar 22
New
Mar 30
First Quarter

Hourly Weather History & Observations

Time (MST) Temp. Windchill Dew Point Humidity Pressure Visibility Wind Dir Wind Speed Gust Speed Precip Events Conditions
12:51 AM 15.1 °F - 10.0 °F 80% 30.14 in - Calm Calm - N/A   Unknown
1:51 AM 14.0 °F - 10.0 °F 84% 30.11 in - Calm Calm - N/A   Unknown
2:51 AM 12.0 °F - 9.0 °F 88% 30.08 in - Calm Calm - N/A   Unknown
3:51 AM 10.0 °F - 7.0 °F 87% 30.07 in - Calm Calm - N/A   Unknown
4:51 AM 9.0 °F 2.4 °F 7.0 °F 92% 30.06 in - Variable 3.5 mph - N/A   Unknown
5:51 AM 8.1 °F - 5.0 °F 87% 30.07 in - Calm Calm - N/A   Unknown
6:51 AM 7.0 °F - 3.9 °F 87% 30.09 in - Calm Calm - N/A   Unknown
7:51 AM 7.0 °F - 5.0 °F 92% 30.09 in - Calm Calm - N/A   Unknown
8:51 AM 12.0 °F - 9.0 °F 88% 30.07 in - Calm Calm - N/A   Unknown
9:51 AM 12.0 °F 4.1 °F 9.0 °F 88% 30.06 in - Variable 4.6 mph - N/A   Unknown
10:51 AM 18.0 °F 12.7 °F 14.0 °F 84% 30.01 in - Variable 3.5 mph - N/A   Unknown
11:51 AM 26.1 °F - 17.1 °F 69% 29.95 in - Calm Calm - N/A   Unknown
12:51 PM 44.1 °F 40.8 °F 19.0 °F 37% 29.86 in - Variable 5.8 mph 24.2 mph N/A   Unknown
1:51 PM 43.0 °F 38.2 °F 16.0 °F 34% 29.82 in - SW 8.1 mph - N/A   Unknown
2:51 PM 43.0 °F 36.0 °F 15.1 °F 32% 29.79 in - WSW 13.8 mph 26.5 mph N/A   Unknown
3:51 PM 43.0 °F 39.5 °F 12.9 °F 30% 29.79 in - Variable 5.8 mph - N/A   Unknown
4:51 PM 42.1 °F 35.7 °F 17.1 °F 37% 29.78 in - SSW 11.5 mph 19.6 mph N/A   Unknown
5:51 PM 42.1 °F 35.7 °F 19.9 °F 41% 29.76 in - South 11.5 mph 25.3 mph N/A   Unknown
6:51 PM 41.0 °F 34.7 °F 19.9 °F 43% 29.75 in - South 10.4 mph 21.9 mph N/A   Unknown
7:51 PM 39.9 °F 33.9 °F 21.0 °F 47% 29.72 in - SE 9.2 mph 17.3 mph N/A   Unknown
8:51 PM 37.0 °F 31.0 °F 25.0 °F 62% 29.69 in - SSE 8.1 mph - N/A   Unknown
9:51 PM 35.1 °F 27.9 °F 28.0 °F 76% 29.68 in - ESE 9.2 mph - N/A   Unknown
10:51 PM 33.1 °F 26.9 °F 28.9 °F 85% 29.62 in - SSE 6.9 mph - N/A   Unknown
11:51 PM 32.0 °F 26.4 °F 28.9 °F 88% 29.56 in - SSE 5.8 mph - 0.01 in   Unknown